リニア彗星

C/2002 A1 ( LINEAR )

English version
Home page
Updated on July 15, 2004

---------------------------------------------------------------------

・ プロフィール

発見日 2002年1月8日
発見光度 18.7等
発見者 Lincoln Laboratory Near-Earth Asteroid Research project

・ 軌道要素

Epoch 2001 Nov. 27.0 TT = JDT 2452240.5
T 2001 Dec. 2.31127 TT                                  MPC
q   4.7135145            (2000.0)            P               Q
n   0.01269751     Peri.   19.08531     -0.18585309     -0.95186482
a  18.1966046      Node    82.20673     +0.86647315     -0.27574674
e   0.7409674      Incl.   14.24200     +0.46333888     +0.13385479
P  77.62

・ 星図

・ 光度変化

        m1 = 9.2 + 5 logΔ + 10.0 log r

---------------------------------------------------------------------

軌道要素は Dr. Brian G. Marsden の計算によるもので、 M.P.E.C. 2003-D29 に掲載されたものです。
星図は StellaNavigator Ver.2.0 for Windows (アストロアーツ 編著 / アスキー出版局刊) で作成したものです。
光度グラフはComet for Windowsで作成したものです。

---------------------------------------------------------------------

Copyright(C) Seiichi Yoshida (comet@aerith.net). All rights reserved.